Regional Weather Roundup
Issued by NWS State College, PA

Home | Current Version | Previous Version | Text Only | Print | Product List | Glossary On
Versions: 1 2 3 4 5 6 7 8 9 10 11 12 13 14 15 16 17 18 19 20 21 22 23 24 25 26 27 28 29 30 31 32 33 34 35 36 37 38 39 40 41 42 43 44 45 46 47 48 49 50
941
ASUS41 KCTP 221310
RWRCTP

REGIONAL WEATHER ROUNDUP
NATIONAL WEATHER SERVICE STATE COLLEGE PA
900 AM EDT SAT JUL 22 2017

Note: "fair" indicates few or no clouds below 12,000 feet with no
significant weather and/or obstructions to visibility.

* = STATION THAT DOES NOT REPORT PRECIPITATION /E.G. RAIN...SNOW...ETC/
    THUNDER OR FOG.

PAZ002>004-007>009-013>016-020>023-029>032-221400-
WESTERN PENNSYLVANIA

CITY           SKY/WX    TMP DP  RH WIND       PRES   REMARKS
ERIE           PTSUNNY   73  64  73 S8        29.90R
MEADVILLE      PTSUNNY   72  68  87 CALM      29.94R
FRANKLIN*      CLOUDY    70  66  88 S7        29.96R
NEW CASTLE     CLOUDY    74  73  97 VRB3      29.93S
BEAVER COUNTY  CLOUDY    72  72 100 S6        29.93  FOG
BUTLER*        CLOUDY    75  70  83 S8        29.94F
PITTSBURGH INT CLOUDY    76  72  87 S6        29.93F FOG
PITTSBURGH     MOSUNNY   76  70  82 S7        29.94F
INDIANA*       CLOUDY    73  73 100 SW8       30.00R FOG
LATROBE        NOT AVBL
WASHINGTON CO* PTSUNNY   73  70  88 S5        29.95S
$$

PAZ004>006-010>012-017>019-024>028-033>037-041-042-045-046-049>053-221400-
CENTRAL PENNSYLVANIA

CITY           SKY/WX    TMP DP  RH WIND       PRES   REMARKS
BRADFORD       MOSUNNY   68  66  93 SE5       29.99R
DUBOIS         CLOUDY    71  69  93 SW5       29.97R FOG
CLEARFIELD     CLOUDY    71  69  93 CALM      29.98R
JOHNSTOWN      CLOUDY    71  68  90 SW8       30.02R FOG
ALTOONA        CLOUDY    75  71  87 SW6       30.00R
STATE COLLEGE  MOSUNNY   73  70  88 CALM      29.96R
WILLIAMSPORT   CLOUDY    74  70  87 CALM      29.93S
SELINSGROVE    SUNNY     76  71  85 CALM      29.93F
FT INDIANTOWN  NOT AVBL
CAPITAL CITY   CLOUDY    82  67  60 CALM      29.92R
HARRISBURG     CLOUDY    81  69  67 CALM      29.91R
YORK           CLOUDY    79  72  79 E3        29.92S
$$

PAZ038>040-043-044-047-048-054-055-060>062-067>071-221400-
EASTERN PENNSYLVANIA

CITY           SKY/WX    TMP DP  RH WIND       PRES   REMARKS
SCRANTON       CLOUDY    74  67  78 CALM      29.95S
MOUNT POCONO   CLOUDY    69  62  78 CALM      29.99R
ALLENTOWN      SUNNY     81  68  64 CALM      29.92R
QUAKERTOWN*    SUNNY     79  66  65 NE6       29.93F
READING        SUNNY     80  73  79 N6        29.91S
LANCASTER      CLOUDY    81  73  76 E5        29.92R
COATESVILLE    MOSUNNY   79  70  73 CALM      29.94S
POTTSTOWN      SUNNY     80  70  71 VRB6      29.93R
BLUE BELL      SUNNY     79  68  69 CALM      29.92S
DOYLESTOWN     SUNNY     81  65  58 NE7       29.91R
WILLOW GROVE   NOT AVBL
NORTH PHILA    MOSUNNY   84  69  60 NE8       29.91R
PHILADELPHIA   PTSUNNY   85  67  54 E9        29.90R
$$




USA.gov is the U.S. government's official web portal to all federal, state and local government web resources and services.